Preview of NWS' New Version of Forecast
This preview is not operational and should not be used for support decisions.

Regional Weather Roundup (RWR)

Issued by National Weather Service (NWS)

                            
000
ASPQ40 PGUM 172210
RWRPQ 
WEATHER ROUNDUP FOR THE MARIANAS AND MICRONESIA
NATIONAL WEATHER SERVICE TIYAN GU
800 AM CHST MON FEB 18 2019

GUZ001>004-172300-
MARIANA ISLANDS-
  
CITY           SKY/WX    TMP DP  RH WIND       PRES   REMARKS
GUAM AIRPORT   MOSUNNY   79  70  73 NE18      30.03R                  
ANDERSEN AFB   PTSUNNY   77  64  65 NE18G25   30.02R                  
ROTA AIRPORT   MOSUNNY   77  64  65 NE13      30.02R                  
TINIAN AP      MOSUNNY  N/A N/A N/A E21       30.03R                  
SAIPAN AP      SUNNY     79  63  57 NE23G30   30.03R                  

$$

PMZ161-172300-
REPUBLIC OF PALAU-
  
CITY           SKY/WX    TMP DP  RH WIND       PRES   REMARKS
KOROR AP       CLOUDY    77  73  88 NE7       29.91R                  
KOROR WSO      NOT AVBL                                               

$$

PMZ171>174-172300-
FEDERATED STATES OF MICRONESIA-
  
CITY           SKY/WX    TMP DP  RH WIND       PRES   REMARKS
YAP AIRPORT    MOSUNNY   81  70  69 NE10      29.94R                  
CHUUK AP       CLOUDY    82  77  83 NE9       29.86R HX  91           
POHNPEI AP     CLOUDY    82  77  83 NE12      29.82S HX  91           
POHNPEI WSO    CLOUDY    82  75  78 N7G20     29.87R                  
KOSRAE AP      CLOUDY    81  75  83 N21       29.75                   

$$

PMZ181-172300-
REPUBLIC OF THE MARSHALL ISLANDS-
  
CITY           SKY/WX    TMP DP  RH WIND       PRES   REMARKS
KWAJALEIN AP   MOSUNNY   82  77  83 E23       29.85R HX  91           
MAJURO AP      PTSUNNY   82  77  83 E25       29.82R HX  91           
MAJURO WSO     NOT AVBL                                               

$$